Location: Eastchurch
(51.4000°N, 0.8667°E)
Time: 01:07:43
(UTC+00:00)

COSMO-SKYMED 1 - Pass Details

Date: 19 January 2026
Orbit: 577 x 579 km, 97.9° (Epoch: 18 February)

Event Time Altitude Azimuth Distance (km) Brightness Sun altitude
Exits shadow 19:17:39 26° 341° (NNW) 1,169 4.1 -26.5°
Maximum altitude 19:19:22 39° 293° (WNW) 885 3.7 -26.8°
Drops below altitude 10° 19:23:11 10° 224° (SW) 1,890 5.5 -27.4°
Sets 19:25:25 0° 217° (SW) 2,784 6.4 -27.7°
